Buffalo, NY

9:40 AM EST on December 11, 2019 (GMT -0500)
Buffalo Niagara International

Weather History for KBUF - July, 2019

Change the Weather History Date:

Thursday, July 25, 2019

  Actual Average Record
Temperature  
Mean Temperature 70 °F 71 °F  
Max Temperature 80 °F 80 °F 93 °F (1917)
Min Temperature 59 °F 63 °F 48 °F (1953)
Degree Days  
Heating Degree Days 0 0  
Month to date heating degree days 2  
Since 1 June heating degree days 66  
Since 1 July heating degree days 2  
Cooling Degree Days 4 7  
Month to date cooling degree days 164  
Year to date cooling degree days 293  
Since 1 June cooling degree days 267  
Growing Degree Days 20 (Base 50)    
Moisture  
Dew Point 56 °F    
Average Humidity 60    
Maximum Humidity 86    
Minimum Humidity 30    
Precipitation  
Precipitation 0.00 in 0.11 in 1.56 in (1979)
Month to date precipitation 2.54  
Year to date precipitation 21.21  
Snow  
Snow 0.00 in 0.00 in T in (2009)
Month to date snowfall 0.0  
Since 1 June snowfall 0.0  
Since 1 July snowfall 0.0  
Snow Depth -    
Sea Level Pressure  
Sea Level Pressure 30.15 in    
Wind  
Wind Speed 7 mph (SW)    
Max Wind Speed 16 mph    
Max Gust Speed 21 mph    
Visibility 10 miles    
Events      
T = Trace of Precipitation, MM = Missing Value Source: NWS Daily Summary

Daily Weather History Graph

Daily Weather History Graph

Search for Another Location

Airport or City:

Astronomy

Jul. 25, 2019 Rise Set
Actual Time 5:58 AM EDT 8:43 PM EDT
Civil Twilight 5:25 AM EDT 9:16 PM EDT
Nautical Twilight 4:43 AM EDT 9:58 PM EDT
Astronomical Twilight 3:55 AM EDT 10:45 PM EDT
Moon 12:47 AM EDT (7/25) 2:19 PM EDT (7/25)
Length of Visible Light 15h 51m
Length of Day
14h 45m
Last Quarter, 44% of the Moon is Illuminated
Jul 25
Last Quarter
Jul 31
New
Aug 7
First Quarter
Aug 15
Full
Aug 23
Last Quarter

Hourly Weather History & Observations

Time (EDT) Temp. Dew Point Humidity Pressure Visibility Wind Dir Wind Speed Gust Speed Precip Events Conditions
12:54 AM 66.0 °F 59.0 °F 78% 30.09 in 10.0 mi South 4.6 mph - N/A   Partly Cloudy
1:54 AM 66.0 °F 57.9 °F 75% 30.09 in 10.0 mi Calm Calm - N/A   Clear
2:54 AM 63.0 °F 57.0 °F 81% 30.09 in 10.0 mi South 3.5 mph - N/A   Clear
3:54 AM 62.1 °F 57.0 °F 84% 30.09 in 10.0 mi South 4.6 mph - N/A   Partly Cloudy
4:54 AM 60.1 °F 55.9 °F 86% 30.11 in 10.0 mi SE 3.5 mph - N/A   Clear
5:54 AM 60.1 °F 55.9 °F 86% 30.12 in 10.0 mi SSE 3.5 mph - N/A   Partly Cloudy
6:54 AM 60.1 °F 55.9 °F 86% 30.14 in 10.0 mi South 4.6 mph - N/A   Partly Cloudy
7:54 AM 64.0 °F 57.9 °F 80% 30.16 in 10.0 mi South 4.6 mph - N/A   Partly Cloudy
8:54 AM 70.0 °F 61.0 °F 73% 30.17 in 10.0 mi SSW 5.8 mph - N/A   Partly Cloudy
9:54 AM 73.9 °F 60.1 °F 62% 30.17 in 10.0 mi SW 8.1 mph - N/A   Partly Cloudy
10:54 AM 75.9 °F 57.9 °F 54% 30.17 in 10.0 mi WSW 10.4 mph 17.3 mph N/A   Partly Cloudy
11:54 AM 77.0 °F 59.0 °F 54% 30.17 in 10.0 mi SW 9.2 mph - N/A   Scattered Clouds
12:54 PM 78.1 °F 59.0 °F 52% 30.17 in 10.0 mi WSW 11.5 mph 18.4 mph N/A   Scattered Clouds
1:54 PM 79.0 °F 55.9 °F 45% 30.17 in 10.0 mi WSW 12.7 mph - N/A   Partly Cloudy
2:54 PM 79.0 °F 54.0 °F 42% 30.16 in 10.0 mi SW 15.0 mph - N/A   Partly Cloudy
3:54 PM 79.0 °F 53.1 °F 40% 30.16 in 10.0 mi WSW 15.0 mph - N/A   Partly Cloudy
4:54 PM 79.0 °F 53.1 °F 40% 30.15 in 10.0 mi WSW 13.8 mph 20.7 mph N/A   Partly Cloudy
5:54 PM 78.1 °F 52.0 °F 40% 30.16 in 10.0 mi WSW 16.1 mph - N/A   Partly Cloudy
6:54 PM 77.0 °F 52.0 °F 42% 30.17 in 10.0 mi WSW 16.1 mph - N/A   Partly Cloudy
7:54 PM 75.0 °F 54.0 °F 48% 30.17 in 10.0 mi SW 10.4 mph - N/A   Mostly Cloudy
8:54 PM 73.9 °F 55.9 °F 53% 30.17 in 10.0 mi SW 11.5 mph - N/A   Scattered Clouds
9:54 PM 73.0 °F 57.0 °F 57% 30.18 in 10.0 mi SW 9.2 mph - N/A   Scattered Clouds
10:54 PM 72.0 °F 57.9 °F 61% 30.19 in 10.0 mi SW 8.1 mph - N/A   Partly Cloudy
11:54 PM 68.0 °F 57.0 °F 68% 30.19 in 10.0 mi SSW 6.9 mph - N/A   Partly Cloudy